ATLAS 5 CENTAUR DEB, 44682

Orbit data source: Space-Track

ATLAS 5 CENTAUR DEB, 44682 is space debris in HEO originally from a launch on Wed, 17 Oct 2018 UTC launched from the Air Force Eastern Test Range (AFETR). Debris objects in space refer to the collection of defunct objects orbiting the Earth. Examples of debris include non-operational satellites, rocket bodies, and fragments generated from explosions, collisions, or faulty payload assembly.

Loading next visibility...
ATLAS 5 CENTAUR DEB details
Identifier
44682, 2018-079AU
Orbit
HEO
Last TLE update2 days ago
Origin
Flag of USULA (US)
ManufacturerULA Decatur
MissionSpacecraft
Bus & MotorUnknown
MassUnknown
Launch date (UTC)
2018-10-17 (6 years ago)
Launch vehicleUnknown
Launch site
Air Force Eastern Test Range (AFETR)
Object type
Payload
Rocket body
Debris
Shape & HBRUnknown
Radar Cross SectionRCS unknown

Expand to show TLE details & history

TLE from 2 days ago
0 ATLAS 5 CENTAUR DEB
1 44682U 18079AU  24346.61490693 -.00000107  00000-0  00000-0 0  9995
2 44682  12.6716  82.7005 4655823 219.7397  94.6157  1.81925134 36805
Epoch: 2024-12-11T14:45Z
Definitive object data (Epoch: 2024-12-11T14:45:27.958Z)
Latitude0.00002°
Longitude140.4458°
Altitude28,218.38 km
Speed2.997 km/s
True Right ascension05h 30m 28s
True Declination0° 00' 00"
Sunlit
Object was in daylight at TLE epoch
Visualization TLE readout
Latitude8.17161°
Longitude179.94097°
Altitude35,162.189 km
Speed2.265 km/s
Apparent Right ascension08h 09m 42s
Apparent Declination2° 53' 18"
Sunlit
Object is in daylight
Visualization observer readout
Local Sidereal Time07:59:10
Azimuth175.633° S
Elevation52.895°
Doppler factor1
Orbital elements
Apogee altitude35,166.572 km
Perigee altitude8,770.946 km
Semi-major axis28,346.896 km
Eccentricity0.4655823
Inclination12.6716°
RAAN82.7005°
Arg. of periapsis219.7397°
True anomaly140.21564°
Mean anomaly94.6157°
Eccentric anomaly118.13873°
Mean motion0.45476 °/min
BSTARUnknown
Orbital period791.62 mins
Loading maneuver chart data...

ATLAS 5 CENTAUR DEB Visibility forecast

Observer location: undefined°, undefined

Span
Click to sort rows by Start time (UTC) header in descending order
Start Az.
Max El. time (UTC)
Max El. Az.
Max El.
End time (UTC)
End Az.
359 mins2024-12-13 09:29:23.569Z175.635° S2024-12-13 12:43:23.569Z188.691° SSW39.807°2024-12-13 15:28:23.569Z119.789° SE
165 mins2024-12-14 06:44:23.569Z229.115° WSW2024-12-14 09:29:23.569Z219.947° SW31.509°2024-12-14 09:29:23.569Z219.947° SW
|